Location: Isola Pescaroli
(45.0500°N, 10.1667°E)
Time: 01:01:23
(UTC+00:00)

SeaSat 1 - Pass Details

Date: 03 March 2021
Orbit: 744 x 747 km, 108.0° (Epoch: 18 April)

Event Time Altitude Azimuth Distance (km) Brightness Sun altitude
Rises 17:56:01 0° 33° (NNE) 3,200 5.4 -9.0°
Reaches altitude 10° 17:58:23 10° 40° (NE) 2,272 4.6 -9.4°
Maximum altitude 18:03:07 44° 112° (ESE) 1,026 2.8 -10.3°
Drops below altitude 10° 18:07:48 10° 184° (S) 2,258 5.0 -11.1°
Sets 18:10:09 0° 191° (S) 3,177 5.8 -11.5°
